THOR ABLESTAR DEB, 13364

Orbit data source: Space-Track

THOR ABLESTAR DEB, 13364 is space debris in LEO originally from a launch on Thu, 29 Jun 1961 UTC launched from the Air Force Eastern Test Range (AFETR). Debris objects in space refer to the collection of defunct objects orbiting the Earth. Examples of debris include non-operational satellites, rocket bodies, and fragments generated from explosions, collisions, or faulty payload assembly.

Loading next visibility...
Identifier
13364, 1961-015KS
Orbit
LEO
Country
Flag of USUS
Related business
Manufacturer
Unknown
Mission
Spacecraft
Bus & Motor
Unknown
Mass
Unknown
Launch date (UTC)
1961-06-29 (64 years ago)
Launch vehicle
Unknown
Launch site
Air Force Eastern Test Range (AFETR)
Object type
Payload
Rocket body
Debris
Shape & HBR
Unknown shape, 0.1 m
Radar Cross Section
Small (<0.1 m²)

Expand to show TLE details & history
Last TLE update: 9 hours ago

TLE from 9 hours ago
0 THOR ABLESTAR DEB
1 13364U 61015KS  25340.91640255  .00001379  00000-0  14133-2 0  9990
2 13364  66.2613  75.0229 0105139 283.2821 188.5524 13.77122130385706
Epoch: 2025-12-06T21:59Z
TLE epoch observation values (Epoch: 2025-12-06T21:59:37.180Z)
Latitude
58.41064°
Longitude
163.82608°
Altitude
1,059.56 km
Speed
7.29 km/s
True Right ascension
13h 58m 40s
True Declination
58° 15' 48"
Sunlit
Object was in daylight at epoch
Visualization orbit readout
Latitude
Unknown
Longitude
Unknown
Altitude
Unknown
Speed
Unknown
Apparent Right ascension
Unknown
Apparent Declination
Unknown
Sunlit
N/A
Visualization observer readout
Local Sidereal Time
05:01:39
Azimuth
Unknown
Elevation
Unknown
Doppler factor
Unknown
Orbital elements
Apogee altitude
1,049.862 km
Perigee altitude
895.293 km
Semi-major axis
7,350.714 km
Eccentricity
0.01051
Inclination
66.2613°
RAAN
75.0229°
Arg. of periapsis
283.2821°
True anomaly
188.37553°
Mean anomaly
188.5524°
Eccentric anomaly
188.46374°
Mean motion
3.44389 °/min
Orbital period
104.53 mins
BSTAR
0.0014133
Loading maneuver chart data...
Computing Atmospheric mass density...

Documentation

Showing up to 5 results
|